一网星座-0546星 (ONEWEB-0546)

导读 | 星芒AI

ONEWEB-0546 是 OneWeb 卫星星座计划中的一颗低轨通信卫星,旨在为全球提供高速互联网服务。该卫星采用标准化设计,具备高容量和高可靠性,支持偏远地区和航空、航海等移动通信需求。作为 OneWeb 通信网络的一部分,它与其他卫星协同工作,实现全球覆盖。该卫星由阿丽亚娜航天公司制造,并通过火箭发射进入近地轨道,助力实现 OneWeb 的全球宽带连接愿景。

基本信息
目录编号:
56048
目录名称:
ONEWEB-0546
国际标识:
2023-043C
轨道中心:
EARTH
卫星名称:
一网星座-0546星
卫星全名:
一网星座-0546星 (ONEWEB-0546)
卫星状态:
在轨 (已飞行996 天)
发射日期:
2023-03-26 UTC
国别 :
英国 (GB)
星等 :
--
轨道信息
数据来源 国际轨道数据 AOE轨道数据
星历时间 2025-12-15T14:18:39+0800
20小时前
查看轨道信息
2025-12-15T14:00:00+0800
20小时前
查看轨道信息
半长轴 7575.886km 7575.878km
偏心率 0.00011 0.0001098
轨道倾角 87.906° 87.906°
近地点辐角 87.895° 95.182°
升交点赤经 265.390° 265.393°
平近点角 272.231° 203.601°
近地点 1196.917km 1196.911km
远地点 1198.585km 1198.575km
周期 109.373分钟 109.373分钟
每日圈数 13.165965 13.165985
详细信息
平衡模式:
三轴稳定
覆盖范围:
全球
运营商:
一网卫星公司
运营商所在国:
英国
制造商(研发单位):
一网卫星公司
制造商所在国:
英国
使用方式:
暂无
卫星简介
OneWeb卫星网络由648颗重约125公斤的微型卫星组成,运行在1200公里的轨道上。 每颗卫星都能够提供至少每秒8千兆位的吞吐量,以使用其高吞吐量的Ku频段有效载荷为家庭和移动平台提供互联网接入。该卫星仍在工作。
2D轨道图
3D轨道图
轨道高度分析图
轨道倾角分析图
轨道综合分析图
查看轨道综合分析图